Home   Weather   Carbondale   Past weeks
Flag for USA

Past Weather in Carbondale, Illinois, USA — Yesterday and Last 2 Weeks

Now
74 °F

Mostly cloudy.


Feels Like: 71 °F
Forecast: 80 / 72 °F
Wind: 9 mph from South

Location: Southern Illinois Airport

Current Time: Jul 16, 2019 at 7:37:34 am

Latest Report: Jul 16, 2019 at 6:52 am


Visibility: 9 mi

Pressure: 29.91 "Hg

Humidity: 94%

Dew Point: 72 °F

Location of CarbondaleLocation

Past Weather in Carbondale — Graph

°F

Carbondale Temperature Yesterday

Maximum temperature yesterday: 76 °F (at 6:23 pm)
Minimum temperature yesterday: 71 °F (at 4:52 am)
Average temperature yesterday: 73 °F

High & Low Weather Summary for the Past Weeks

 TemperatureHumidityPressure
High94 °F (Jul 10, 2:52 pm)100% (Jul 5, 8:52 pm)30.14 "Hg (Jul 5, 8:52 pm)
Low64 °F (Jul 13, 4:52 am)44% (Jul 13, 4:52 pm)29.86 "Hg (Jul 2, 7:52 pm)
Average79 °F79%29.97 "Hg
* Reported Jul 1 5:52 am — Jul 16 5:52 am, Carbondale. Weather by CustomWeather, © 2019

Note: Actual official high and low records may vary slightly from our data, if they occured in-between our weather recording intervals... More about our weather records

Advertising

Carbondale Weather History for the Previous 24 Hours

Scroll right to see more
 ConditionsComfort  
Time TempWeatherWind HumidityBarometerVisibility
5:52 am
Tue, Jul 16
73 °FOvercast.6 mph94%29.90 "Hg9 mi
5:22 am73 °FPassing clouds.6 mph97%29.92 "Hg10 mi
5:07 am73 °FPartly cloudy.6 mph94%29.91 "Hg10 mi
4:57 am73 °FPassing clouds.7 mph94%29.91 "Hg10 mi
4:38 am73 °FLight rain. Fog.9 mph97%29.91 "Hg5 mi
4:10 am73 °FLight rain. Fog.7 mph97%29.91 "Hg5 mi
4:07 am73 °FLight rain. Fog.7 mph97%29.91 "Hg6 mi
3:52 am73 °FLight rain. Mostly cloudy.6 mph97%29.90 "Hg9 mi
3:23 am73 °FMostly cloudy.8 mph94%29.91 "Hg10 mi
2:52 am74 °FOvercast.8 mph94%29.90 "Hg10 mi
1:52 am74 °FLight rain. Fog.3 mph97%29.92 "Hg5 mi
1:10 am74 °FPassing clouds.7 mph94%29.93 "Hg10 mi
12:52 am74 °FMostly cloudy.10 mph94%29.92 "Hg10 mi
12:20 am73 °FMostly cloudy.6 mph97%29.93 "Hg10 mi
11:52 pm
Mon, Jul 15
73 °FLight rain. Fog.8 mph97%29.93 "Hg4 mi
10:52 pm74 °FLight rain. Mostly cloudy.14 mph94%29.93 "Hg8 mi
9:52 pm75 °FPassing clouds.14 mph90%29.93 "Hg10 mi
8:52 pm74 °FPassing clouds.10 mph94%29.92 "Hg10 mi
7:52 pm75 °FScattered clouds.12 mph90%29.93 "Hg10 mi
6:52 pm75 °FPartly sunny.12 mph90%29.93 "Hg10 mi
6:23 pm76 °FBroken clouds.10 mph91%29.95 "Hg10 mi
6:09 pm75 °FPartly sunny.8 mph94%29.95 "Hg10 mi
5:27 pm74 °FLight rain. Fog.5 mph94%29.95 "Hg2 mi
5:13 pm73 °FLight rain. Fog.6 mph97%29.96 "Hg2 mi
4:59 pm74 °FLight rain. Fog.7 mph94%29.96 "Hg2 mi
4:31 pm73 °FLight rain. Fog.10 mph97%29.97 "Hg2 mi
4:22 pm73 °FFog.12 mph94%29.97 "Hg5 mi
3:52 pm73 °FLight rain. Fog.12 mph94%29.98 "Hg2 mi
2:52 pm72 °FLight rain. Fog.15 mph93%29.99 "Hg2 mi
2:43 pm72 °FLight rain. Fog.18 mph93%30.01 "Hg3 mi
2:31 pm72 °FLight rain. Fog.15 mph93%30.01 "Hg2 mi
2:21 pm71 °FLight rain. Fog.15 mph96%30.01 "Hg2 mi
2:00 pm71 °FRain. Fog.16 mph96%30.02 "Hg1 mi
1:32 pm71 °FRain. Fog.13 mph96%30.04 "Hg1 mi
1:12 pm71 °FRain. Fog.14 mph96%30.04 "Hg2 mi
12:52 pm71 °FRain. Fog.18 mph96%30.03 "Hg1 mi
12:40 pm72 °FLight rain. Fog.14 mph93%30.04 "Hg2 mi
12:31 pm72 °FLight rain. Fog.13 mph93%30.06 "Hg2 mi
12:11 pm72 °FLight rain. Fog.16 mph93%30.07 "Hg2 mi
11:59 am72 °FLight rain. Fog.14 mph93%30.07 "Hg3 mi
11:30 am72 °FLight rain. Fog.15 mph93%30.07 "Hg5 mi
10:52 am71 °FLight rain. Fog.9 mph96%30.08 "Hg2 mi
9:52 am71 °FRain. Fog.6 mph93%30.09 "Hg2 mi
8:52 am71 °FRain. Fog.6 mph90%30.07 "Hg4 mi
7:52 am72 °FRain. Fog.5 mph87%30.07 "Hg4 mi
Weather by CustomWeather, © 2019

See weather overview

LIVE PARTIAL LUNAR ECLIPSE – Watch the eclipse as it happens